Location: Zilina
(0.0000°N, 18.7333°E)
Time: 18:16:16
(UTC+02:00)

Cosmos 1633 - Pass Details

Date: 19 February 2019
Orbit: 464 x 484 km, 82.5° (Epoch: 18 October)

Event Time Altitude Azimuth Distance (km) Brightness Sun altitude
Rises 18:20:26 0° 196° (SSW) 2,551 6.6 -5.3°
Reaches altitude 10° 18:22:38 10° 204° (SSW) 1,669 5.8 -5.8°
Maximum altitude 18:26:03 38° 273° (W) 748 4.3 -6.7°
Drops below altitude 10° 18:29:27 10° 343° (NNW) 1,659 5.3 -7.5°
Sets 18:31:38 0° 351° (N) 2,533 6.2 -8.0°
